Location: B�hl
(48.6968°N, 8.1352°E)
Time: 08:08:51
(UTC+00:00)

Cosmos 2369 Rocket - Pass Details

Date: 08 March 2021
Orbit: 829 x 852 km, 71.0° (Epoch: 11 April)

Event Time Altitude Azimuth Distance (km) Brightness Sun altitude
Rises 21:55:50 0° 327° (NNW) 3,385 6.2 -40.8°
Reaches altitude 10° 21:58:23 10° 321° (NW) 2,449 5.3 -41.0°
Enters shadow 22:00:08 20° 312° (NW) 1,848 4.4 -41.2°
